| time (UTC) | temp F | wind direction | speed knots | gust knots | rain 1hr in | rain 24hr in | rain mn in | humidity % | barometer mb |
| 20260906092544 | 70 | 63 | 0.0 | 1.7 | 0.00 | 0.00 | 0.00 | 97 | 1017.4 |
| 20260906091605 | 70 | 274 | 0.9 | 1.7 | 0.00 | 0.00 | 0.00 | 97 | 1017.4 |
| 20260906090524 | 70 | 304 | 0.9 | 1.7 | 0.00 | 0.00 | 0.00 | 97 | 1017.2 |
| 20260906085524 | 70 | 290 | 0.9 | 2.6 | 0.00 | 0.00 | 0.00 | 97 | 1017.3 |
| 20260906084524 | 70 | 281 | 0.9 | 1.7 | 0.00 | 0.00 | 0.00 | 97 | 1017.4 |
| 20260906083524 | 70 | 63 | 0.9 | 1.7 | 0.00 | 0.00 | 0.00 | 97 | 1017.4 |
| 20260906082524 | 70 | 283 | 0.0 | 1.7 | 0.00 | 0.00 | 0.00 | 97 | 1017.4 |
| 20260906081529 | 70 | 293 | 0.9 | 1.7 | 0.00 | 0.00 | 0.00 | 97 | 1017.2 |
| 20260906080544 | 70 | 315 | 0.0 | 2.6 | 0.00 | 0.00 | 0.00 | 97 | 1017.1 |
| 20260906075525 | 71 | 14 | 0.9 | 1.7 | 0.00 | 0.00 | 0.00 | 97 | 1017.1 |
| 20260906074525 | 71 | 99 | 0.0 | 1.7 | 0.00 | 0.00 | 0.00 | 97 | 1017.0 |
| 20260906073524 | 71 | 297 | 0.9 | 1.7 | 0.00 | 0.00 | 0.00 | 97 | 1017.0 |
| 20260906072524 | 71 | 301 | 0.0 | 1.7 | 0.00 | 0.00 | 0.00 | 96 | 1017.0 |
| 20260906071524 | 71 | 0.0 | 1.7 | 0.00 | 0.00 | 0.00 | 96 | 1017.0 | |
| 20260906070525 | 71 | 272 | 0.0 | 1.7 | 0.00 | 0.00 | 0.00 | 96 | 1016.9 |
| 20260906065524 | 71 | 305 | 0.0 | 1.7 | 0.00 | 0.00 | 0.00 | 96 | 1017.0 |
| 20260906064524 | 71 | 315 | 0.9 | 2.6 | 0.00 | 0.00 | 0.00 | 96 | 1017.1 |
| 20260906063524 | 71 | 341 | 0.9 | 2.6 | 0.00 | 0.00 | 0.00 | 96 | 1017.2 |
| 20260906062524 | 71 | 295 | 0.9 | 2.6 | 0.00 | 0.00 | 0.00 | 96 | 1017.1 |
| 20260906061544 | 71 | 307 | 0.0 | 1.7 | 0.00 | 0.00 | 0.00 | 96 | 1017.1 |
| 20260906060525 | 71 | 273 | 0.0 | 1.7 | 0.00 | 0.00 | 0.00 | 96 | 1017.2 |
| 20260906055525 | 71 | 12 | 0.0 | 1.7 | 0.00 | 0.00 | 0.00 | 96 | 1017.2 |
| 20260906054525 | 71 | 323 | 0.0 | 1.7 | 0.00 | 0.00 | 0.00 | 96 | 1017.4 |
| 20260906053525 | 72 | 281 | 0.9 | 2.6 | 0.00 | 0.00 | 0.00 | 96 | 1017.7 |
| 20260906052525 | 72 | 244 | 0.0 | 1.7 | 0.00 | 0.00 | 0.00 | 96 | 1017.8 |
| 20260906051524 | 72 | 59 | 0.0 | 1.7 | 0.00 | 0.00 | 0.00 | 96 | 1017.9 |
| 20260906050544 | 72 | 286 | 0.9 | 2.6 | 0.00 | 0.00 | 0.00 | 95 | 1018.0 |
| 20260906045524 | 72 | 224 | 0.0 | 1.7 | 0.00 | 0.00 | 0.00 | 95 | 1018.1 |
| 20260906044524 | 73 | 343 | 1.7 | 3.5 | 0.00 | 0.00 | 0.00 | 95 | 1018.1 |
| 20260906043524 | 73 | 193 | 0.9 | 2.6 | 0.00 | 0.00 | 0.00 | 95 | 1018.1 |
| 20260906042524 | 73 | 330 | 1.7 | 3.5 | 0.00 | 0.00 | 0.00 | 95 | 1018.1 |
| 20260906041524 | 73 | 266 | 0.9 | 2.6 | 0.00 | 0.00 | 0.00 | 94 | 1018.1 |
| 20260906040525 | 73 | 210 | 0.9 | 2.6 | 0.00 | 0.00 | 0.00 | 94 | 1018.2 |
| 20260906035544 | 73 | 343 | 1.7 | 3.5 | 0.00 | 0.00 | 0.00 | 93 | 1017.9 |
| 20260906034524 | 74 | 292 | 0.0 | 3.5 | 0.00 | 0.00 | 0.00 | 92 | 1018.1 |
| 20260906033524 | 74 | 321 | 0.9 | 2.6 | 0.00 | 0.00 | 0.00 | 92 | 1018.0 |
| 20260906032524 | 74 | 296 | 1.7 | 1.7 | 0.00 | 0.00 | 0.00 | 93 | 1017.9 |
| 20260906031524 | 74 | 298 | 1.7 | 3.5 | 0.00 | 0.00 | 0.00 | 94 | 1017.9 |
| 20260906030525 | 74 | 257 | 0.0 | 1.7 | 0.00 | 0.00 | 0.00 | 94 | 1017.9 |
| 20260906025545 | 75 | 322 | 0.9 | 1.7 | 0.00 | 0.00 | 0.00 | 94 | 1017.9 |
| 20260906024525 | 75 | 288 | 0.0 | 1.7 | 0.00 | 0.00 | 0.00 | 94 | 1017.8 |
| 20260906023525 | 75 | 293 | 0.9 | 1.7 | 0.00 | 0.00 | 0.00 | 94 | 1017.6 |
| 20260906022525 | 76 | 303 | 0.0 | 1.7 | 0.00 | 0.00 | 0.00 | 93 | 1017.4 |
| 20260906021525 | 76 | 269 | 0.9 | 2.6 | 0.00 | 0.00 | 0.00 | 93 | 1017.5 |
| 20260906020524 | 76 | 0.0 | 1.7 | 0.00 | 0.00 | 0.00 | 92 | 1017.6 | |
| 20260906015525 | 77 | 315 | 0.9 | 1.7 | 0.00 | 0.00 | 0.00 | 92 | 1017.8 |
| 20260906014605 | 77 | 278 | 0.9 | 2.6 | 0.00 | 0.00 | 0.00 | 91 | 1017.7 |
| 20260906013524 | 77 | 320 | 0.0 | 1.7 | 0.00 | 0.00 | 0.00 | 91 | 1017.7 |
| 20260906012544 | 77 | 278 | 0.9 | 2.6 | 0.00 | 0.00 | 0.00 | 91 | 1017.4 |
| 20260906011524 | 78 | 256 | 1.7 | 1.7 | 0.00 | 0.00 | 0.00 | 90 | 1017.5 |
| 20260906010524 | 78 | 70 | 0.0 | 1.7 | 0.00 | 0.00 | 0.00 | 90 | 1017.2 |
| 20260906005524 | 78 | 324 | 0.9 | 1.7 | 0.00 | 0.00 | 0.00 | 89 | 1016.9 |
| 20260906004525 | 78 | 269 | 0.0 | 0.9 | 0.00 | 0.00 | 0.00 | 89 | 1016.7 |
| 20260906003524 | 79 | 268 | 0.9 | 1.7 | 0.00 | 0.00 | 0.00 | 87 | 1017.1 |
| 20260906002544 | 79 | 294 | 0.9 | 1.7 | 0.00 | 0.00 | 0.00 | 86 | 1017.0 |
| 20260906001524 | 80 | 309 | 0.9 | 1.7 | 0.00 | 0.00 | 0.00 | 88 | 1016.8 |
| 20260906000524 | 81 | 267 | 0.9 | 2.6 | 0.00 | 0.00 | 0.00 | 85 | 1016.8 |
| 20260905235545 | 81 | 301 | 0.9 | 1.7 | 0.00 | 0.00 | 0.00 | 86 | 1016.8 |
| 20260905234524 | 82 | 0.0 | 1.7 | 0.00 | 0.00 | 0.00 | 84 | 1016.8 | |
| 20260905233524 | 83 | 265 | 0.9 | 1.7 | 0.00 | 0.00 | 0.00 | 83 | 1016.8 |
| 20260905232524 | 84 | 286 | 0.9 | 1.7 | 0.00 | 0.00 | 0.00 | 81 | 1016.7 |
| 20260905231524 | 84 | 291 | 0.9 | 1.7 | 0.00 | 0.00 | 0.00 | 79 | 1016.6 |
| 20260905230524 | 84 | 305 | 1.7 | 3.5 | 0.00 | 0.00 | 0.00 | 77 | 1016.5 |
| 20260905225525 | 85 | 292 | 1.7 | 3.5 | 0.00 | 0.00 | 0.00 | 77 | 1016.5 |
| 20260905224525 | 86 | 280 | 1.7 | 2.6 | 0.00 | 0.00 | 0.00 | 74 | 1016.4 |
| 20260905223525 | 86 | 306 | 2.6 | 3.5 | 0.00 | 0.00 | 0.00 | 73 | 1016.3 |
| 20260905222524 | 87 | 312 | 2.6 | 3.5 | 0.00 | 0.00 | 0.00 | 72 | 1016.3 |
| 20260905221524 | 88 | 286 | 1.7 | 2.6 | 0.00 | 0.00 | 0.00 | 68 | 1016.3 |
| 20260905220524 | 90 | 293 | 2.6 | 2.6 | 0.00 | 0.00 | 0.00 | 64 | 1016.5 |
| 20260905215525 | 91 | 284 | 1.7 | 2.6 | 0.00 | 0.00 | 0.00 | 63 | 1016.6 |
| 20260905214524 | 91 | 287 | 1.7 | 2.6 | 0.00 | 0.00 | 0.00 | 63 | 1016.8 |
| 20260905213524 | 91 | 279 | 1.7 | 2.6 | 0.00 | 0.00 | 0.00 | 62 | 1016.8 |
| 20260905212524 | 90 | 275 | 1.7 | 3.5 | 0.00 | 0.00 | 0.00 | 62 | 1016.8 |
| 20260905211524 | 90 | 281 | 1.7 | 3.5 | 0.00 | 0.00 | 0.00 | 62 | 1017.0 |
| 20260905210545 | 90 | 292 | 2.6 | 3.5 | 0.00 | 0.00 | 0.00 | 63 | 1017.2 |
| 20260905205545 | 90 | 281 | 2.6 | 3.5 | 0.00 | 0.00 | 0.00 | 64 | 1017.1 |
| 20260905204545 | 91 | 275 | 2.6 | 3.5 | 0.00 | 0.00 | 0.00 | 63 | 1017.1 |
| 20260905203545 | 89 | 271 | 1.7 | 3.5 | 0.00 | 0.00 | 0.00 | 65 | 1017.4 |
| 20260905202525 | 89 | 271 | 1.7 | 3.5 | 0.00 | 0.00 | 0.00 | 65 | 1017.5 |
| 20260905201525 | 88 | 221 | 1.7 | 3.5 | 0.00 | 0.00 | 0.00 | 67 | 1017.6 |
| 20260905200525 | 87 | 265 | 0.9 | 3.5 | 0.00 | 0.00 | 0.00 | 68 | 1017.7 |
| 20260905195525 | 86 | 273 | 0.9 | 2.6 | 0.00 | 0.00 | 0.00 | 70 | 1017.8 |
| 20260905194525 | 85 | 301 | 0.9 | 2.6 | 0.00 | 0.00 | 0.00 | 74 | 1018.0 |
| 20260905193545 | 85 | 297 | 1.7 | 2.6 | 0.00 | 0.00 | 0.00 | 73 | 1018.0 |
| 20260905192545 | 85 | 63 | 0.9 | 2.6 | 0.00 | 0.00 | 0.00 | 73 | 1018.1 |
| 20260905191524 | 85 | 301 | 1.7 | 1.7 | 0.00 | 0.00 | 0.00 | 77 | 1018.5 |
| 20260905190524 | 85 | 298 | 1.7 | 2.6 | 0.00 | 0.00 | 0.00 | 77 | 1018.7 |
| 20260905185545 | 86 | 283 | 0.9 | 2.6 | 0.00 | 0.00 | 0.00 | 73 | 1018.7 |
| 20260905184525 | 86 | 302 | 1.7 | 2.6 | 0.00 | 0.00 | 0.00 | 72 | 1018.2 |
| 20260905183525 | 88 | 304 | 0.9 | 1.7 | 0.00 | 0.00 | 0.00 | 69 | 1017.6 |
| 20260905182544 | 89 | 313 | 2.6 | 3.5 | 0.00 | 0.00 | 0.00 | 65 | 1018.3 |
| 20260905181524 | 91 | 270 | 1.7 | 2.6 | 0.00 | 0.00 | 0.00 | 60 | 1018.1 |
| 20260905180524 | 92 | 303 | 1.7 | 3.5 | 0.00 | 0.00 | 0.00 | 57 | 1018.5 |
| 20260905175524 | 95 | 292 | 0.9 | 3.5 | 0.00 | 0.00 | 0.00 | 53 | 1018.4 |
| 20260905174524 | 95 | 236 | 1.7 | 3.5 | 0.00 | 0.00 | 0.00 | 51 | 1018.5 |
| 20260905173524 | 95 | 178 | 2.6 | 5.2 | 0.00 | 0.00 | 0.00 | 52 | 1018.7 |
| 20260905172524 | 95 | 230 | 2.6 | 5.2 | 0.00 | 0.00 | 0.00 | 51 | 1018.4 |
| 20260905171524 | 94 | 266 | 0.9 | 3.5 | 0.00 | 0.00 | 0.00 | 54 | 1018.7 |
| 20260905170525 | 95 | 298 | 0.9 | 2.6 | 0.00 | 0.00 | 0.00 | 53 | 1018.8 |
| 20260905165525 | 95 | 262 | 2.6 | 3.5 | 0.00 | 0.00 | 0.00 | 55 | 1019.0 |
| 20260905164527 | 93 | 248 | 1.7 | 3.5 | 0.00 | 0.00 | 0.00 | 56 | 1019.1 |
| 20260905163524 | 92 | 238 | 1.7 | 5.2 | 0.00 | 0.00 | 0.00 | 58 | 1019.2 |
| 20260905162524 | 92 | 217 | 1.7 | 5.2 | 0.00 | 0.00 | 0.00 | 61 | 1019.4 |
| 20260905161525 | 92 | 215 | 0.9 | 3.5 | 0.00 | 0.00 | 0.00 | 61 | 1019.3 |
| 20260905160544 | 91 | 234 | 0.9 | 2.6 | 0.00 | 0.00 | 0.00 | 62 | 1019.3 |
| 20260905155524 | 91 | 263 | 2.6 | 3.5 | 0.00 | 0.00 | 0.00 | 64 | 1019.3 |
| 20260905154604 | 90 | 236 | 0.9 | 3.5 | 0.00 | 0.00 | 0.00 | 67 | 1019.4 |
| 20260905153545 | 89 | 247 | 0.9 | 1.7 | 0.00 | 0.00 | 0.00 | 69 | 1019.4 |
| 20260905152524 | 88 | 215 | 0.9 | 2.6 | 0.00 | 0.00 | 0.00 | 70 | 1019.4 |
| 20260905151537 | 87 | 254 | 1.7 | 1.7 | 0.00 | 0.00 | 0.00 | 71 | 1019.6 |
| 20260905130026 | 76 | 0.0 | 1.7 | 0.00 | 0.00 | 0.00 | 88 | 1020.5 | |
| 20260905125027 | 75 | 0.0 | 1.7 | 0.00 | 0.00 | 0.00 | 89 | 1020.5 | |
| 20260905124026 | 74 | 192 | 0.0 | 1.7 | 0.00 | 0.00 | 0.00 | 92 | 1020.5 |
| 20260905123026 | 73 | 0.0 | 0.9 | 0.00 | 0.00 | 0.00 | 95 | 1020.4 | |
| 20260905122046 | 72 | 0.0 | 1.7 | 0.00 | 0.00 | 0.00 | 98 | 1020.4 | |
| 20260905121027 | 71 | 0.0 | 0.9 | 0.00 | 0.00 | 0.00 | 98 | 1020.4 | |
| 20260905120026 | 71 | 302 | 0.9 | 1.7 | 0.00 | 0.00 | 0.00 | 98 | 1020.1 |
| 20260905115026 | 71 | 327 | 0.9 | 0.9 | 0.00 | 0.00 | 0.00 | 98 | 1019.8 |
| 20260905114046 | 70 | 282 | 0.0 | 1.7 | 0.00 | 0.00 | 0.00 | 98 | 1019.8 |
| 20260905113026 | 70 | 329 | 0.9 | 1.7 | 0.00 | 0.00 | 0.00 | 98 | 1019.7 |
| 20260905112126 | 70 | 0.0 | 1.7 | 0.00 | 0.00 | 0.00 | 98 | 1019.7 | |
| 20260905111026 | 71 | 295 | 0.0 | 1.7 | 0.00 | 0.00 | 0.00 | 98 | 1019.5 |
| 20260905110025 | 70 | 329 | 0.9 | 1.7 | 0.00 | 0.00 | 0.00 | 97 | 1019.3 |
| 20260905105025 | 70 | 327 | 0.9 | 1.7 | 0.00 | 0.00 | 0.00 | 97 | 1019.2 |
| 20260905104027 | 70 | 301 | 0.9 | 1.7 | 0.00 | 0.00 | 0.00 | 97 | 1019.2 |
| 20260905103025 | 71 | 306 | 0.0 | 1.7 | 0.00 | 0.00 | 0.00 | 97 | 1019.2 |
| 20260905102025 | 71 | 274 | 0.9 | 1.7 | 0.00 | 0.00 | 0.00 | 97 | 1018.9 |
| 20260905101025 | 71 | 86 | 0.0 | 1.7 | 0.00 | 0.00 | 0.00 | 97 | 1018.8 |
| 20260905100025 | 71 | 287 | 0.9 | 1.7 | 0.00 | 0.00 | 0.00 | 97 | 1018.8 |
| 20260905095025 | 71 | 316 | 0.9 | 1.7 | 0.00 | 0.00 | 0.00 | 97 | 1018.9 |
| 20260905094045 | 71 | 277 | 0.0 | 1.7 | 0.00 | 0.00 | 0.00 | 97 | 1018.7 |